Temperature
11 11 11 11 11 11 11 11 11 11 11 11 11 11 11 11 11 11 11 10 10 10 10 10 10 10 9 9 9 10 10 9 9 9 9 9 9 9 9 9 9 9 9
10 10 10 10 10 10 10 10 10 10 10 10 10 10 10 10 10 10 10 10 10 10 10 9 9 9 9 9 9 9 9 9 9 9 9 9 9 9 9 9 9 9 9
10 10 10 10 10 10 10 10 10 10 10 10 10 10 10 10 10 10 10 10 10 9 9 9 9 9 9 9 8 8 8 8 8 8 8 8 8 8 9 9 9 9 9
9 9 9 9 9 9 9 9 9 9 9 9 9 9 9 9 9 9 9 9 9 9 9 9 8 8 8 8 8 8 8 8 8 8 8 8 8 8 8 8 8 8 8
8 8 8 9 9 9 9 8 8 9 9 9 9 9 9 9 9 9 9 8 8 8 8 8 8 8 8 8 8 7 7 7 7 7 7 7 7 7 7 7 7 8 8
8 8 8 8 8 8 8 8 8 8 8 8 8 8 8 8 8 8 8 8 8 7 7 7 7 7 7 7 7 7 7 7 7 7 7 7 7 7 7 7 7 7 7
7 7 7 7 7 7 7 7 7 7 7 7 7 7 7 7 7 7 7 7 7 7 7 6 6 7 7 7 7 7 7 6 6 6 6 6 6 6 6 7 7 7 7
7 7 6 6 6 6 6 6 6 6 6 6 6 6 6 6 6 6 6 6 6 6 6 6 6 6 6 6 6 6 6 6 6 6 6 6 6 6 6 6 6 6 6
6 6 6 6 6 6 6 5 5 5 5 5 5 4 4 4 5 5 5 6 6 5 5 5 5 5 5 5 5 5 5 5 5 5 5 5 5 5 5 5 6 6 6
5 5 5 5 5 5 5 5 4 4 4 4 4 4 3 3 3 3 4 5 5 5 5 5 5 5 4 4 4 4 4 5 5 5 5 5 5 5 5 5 5 5 5
4 5 5 4 4 4 4 4 4 4 3 3 3 3 3 2 2 1 2 3 4 4 4 4 4 4 4 4 4 4 4 4 4 4 4 4 4 4 4 5 5 5 5
4 4 4 4 4 4 4 3 3 3 3 3 2 2 2 1 1 1 1 1 2 3 3 3 3 3 3 3 3 3 3 3 3 4 4 4 4 4 4 4 4 4 4
4 4 4 3 3 3 3 3 3 3 2 2 2 1 1 1 1 1 0 -0 0 1 2 2 2 2 2 2 2 2 3 3 3 3 3 3 3 3 3 3 3 4 4
3 3 3 3 3 2 2 2 2 2 2 1 1 1 1 1 0 0 -0 -1 -1 -1 0 1 1 1 1 1 1 2 2 2 2 2 2 2 2 2 2 3 3 3 3
2 2 2 2 2 2 2 2 2 2 1 1 1 0 0 0 -0 -0 -1 -1 -1 -2 -1 -0 -0 0 0 1 1 1 1 1 1 1 2 2 2 2 2 2 2 2 3
2 2 2 2 2 2 2 1 1 1 1 1 0 0 -0 -0 -0 -1 -1 -1 -1 -2 -2 -1 -1 -1 -0 -0 0 0 0 1 1 1 1 1 1 1 1 1 2 2 2
2 2 2 1 1 1 1 1 1 1 0 -0 -0 -0 -1 -1 -1 -1 -1 -2 -2 -2 -2 -2 -1 -1 -1 -1 -0 -0 0 0 0 0 0 0 0 1 1 1 1 1 2
1 1 1 1 1 1 1 0 0 -0 -0 -1 -1 -1 -1 -1 -1 -2 -2 -2 -2 -2 -2 -2 -2 -2 -1 -1 -1 -1 -0 -0 -0 -0 -0 -0 -0 0 0 1 1 1 1
1 1 0 0 0 0 -0 -0 -0 -1 -1 -1 -1 -2 -2 -2 -2 -2 -2 -2 -2 -3 -3 -3 -2 -2 -2 -2 -2 -1 -1 -1 -1 -1 -1 -1 -0 -0 -0 0 0 0 1
0 0 -0 -0 -0 -0 -0 -1 -1 -1 -1 -1 -2 -2 -2 -2 -2 -2 -2 -3 -3 -3 -3 -3 -3 -3 -2 -2 -2 -2 -1 -1 -1 -1 -1 -1 -1 -1 -0 -0 -0 0 0
-0 -0 -0 -0 -1 -1 -1 -1 -1 -1 -2 -2 -2 -2 -2 -2 -3 -3 -3 -3 -3 -3 -3 -3 -3 -3 -3 -3 -3 -3 -3 -2 -2 -2 -1 -1 -1 -1 -1 -1 -0 -0 -0
-1 -1 -1 -1 -1 -1 -1 -1 -2 -2 -2 -2 -2 -2 -3 -3 -3 -3 -3 -3 -3 -3 -4 -4 -4 -4 -3 -3 -3 -3 -3 -3 -3 -2 -2 -2 -2 -1 -1 -1 -1 -1 -1
-1 -1 -1 -1 -1 -1 -2 -2 -2 -2 -2 -3 -3 -3 -3 -3 -3 -3 -3 -3 -3 -4 -4 -4 -4 -4 -4 -4 -4 -4 -4 -3 -3 -3 -3 -2 -2 -2 -1 -1 -1 -1 -1
-1 -1 -2 -2 -2 -2 -2 -2 -2 -3 -3 -3 -3 -3 -3 -3 -3 -3 -3 -3 -4 -4 -4 -4 -4 -4 -4 -4 -4 -4 -4 -4 -3 -3 -3 -3 -2 -2 -2 -2 -1 -1 -1
-2 -2 -2 -2 -2 -2 -2 -2 -3 -3 -3 -3 -3 -3 -3 -3 -3 -4 -4 -4 -4 -4 -4 -4 -4 -4 -4 -4 -4 -4 -4 -4 -4 -3 -3 -4 -3 -3 -2 -2 -2 -2 -2
-2 -2 -2 -2 -3 -3 -3 -3 -3 -3 -3 -3 -3 -4 -4 -4 -4 -4 -4 -4 -4 -4 -4 -4 -4 -4 -4 -4 -4 -4 -4 -4 -4 -4 -4 -4 -4 -4 -3 -2 -2 -2 -2
Wind_Speed
4 5 5 6 6 6 6 5 5 5 4 5 4 4 3 4 4 4 4 5 5 5 4 4 4 4 5 5 5 6 6 6 6 7 6 6 6 6 7 7 7 7 8
5 4 4 5 5 5 5 4 4 4 4 3 3 4 3 3 4 4 4 5 5 5 5 5 5 5 5 6 6 6 7 7 7 7 8 8 8 8 8 8 9 9 9
5 4 4 4 4 5 5 4 5 4 3 4 3 4 3 3 3 3 4 4 5 5 5 5 5 5 6 7 7 7 8 8 8 8 9 8 8 9 9 9 9 9 10
6 5 3 3 4 4 4 3 3 2 3 3 3 3 3 3 3 3 3 3 3 4 5 6 7 6 7 8 8 9 9 9 9 9 9 9 10 10 10 10 11 10 10
5 4 3 3 4 4 3 2 2 2 2 3 3 3 3 2 2 2 3 3 3 4 4 6 7 7 8 8 9 10 10 10 11 10 10 10 11 11 11 11 11 11 11
4 4 3 3 4 3 2 2 2 2 1 2 3 3 3 3 2 1 2 2 3 4 4 5 6 7 8 9 9 10 11 11 12 12 12 12 11 12 11 12 12 12 12
3 3 3 3 2 1 1 1 1 2 2 2 2 3 3 3 2 1 1 2 3 4 5 5 5 6 6 8 9 11 12 13 12 12 13 13 12 12 12 12 12 13 14
2 2 2 1 1 1 1 1 1 1 1 2 2 1 3 4 3 3 2 2 2 4 4 6 6 6 7 7 9 11 12 13 13 13 13 14 14 13 13 13 13 13 14
1 1 1 1 1 1 0 0 0 1 0 1 1 1 0 2 3 3 3 2 3 3 3 5 6 7 7 7 8 10 11 12 13 13 14 14 14 14 14 14 14 14 13
2 1 1 0 1 0 1 1 0 0 1 1 1 0 1 2 1 3 3 3 4 4 4 5 5 6 7 7 8 11 11 12 13 14 14 15 15 15 15 15 15 15 14
2 2 1 0 0 0 1 1 1 1 1 2 1 1 1 1 2 3 4 4 3 3 3 4 4 5 6 7 8 10 12 12 13 14 15 15 15 16 16 16 15 15 14
1 2 2 1 1 1 2 2 3 3 2 2 2 2 2 2 2 3 4 5 6 4 4 4 3 3 5 6 8 10 12 12 13 14 14 15 15 16 16 16 16 15 14
2 2 2 2 2 2 3 2 3 3 3 3 4 3 3 3 3 3 4 5 6 5 4 3 2 3 5 6 8 11 11 13 13 14 14 15 15 15 16 16 16 16 15
3 2 2 2 2 3 3 2 2 3 3 4 4 4 3 3 3 3 3 4 6 6 4 5 3 3 5 6 8 11 11 14 15 15 15 15 16 15 16 16 16 16 15
2 2 2 2 3 3 3 3 3 3 3 4 4 4 4 4 3 3 3 4 4 6 7 5 3 3 6 7 9 10 11 14 16 16 16 16 16 16 16 15 15 15 14
2 3 3 3 3 3 3 3 3 3 3 4 3 4 4 4 4 3 4 4 5 6 8 5 4 5 7 8 12 11 11 16 16 17 17 16 16 15 16 15 15 14 14
3 3 3 3 3 3 3 3 3 3 4 4 4 4 5 4 4 4 4 4 4 5 9 8 6 6 6 7 9 10 11 11 12 16 17 16 16 16 16 16 14 13 13
3 3 3 3 4 3 3 4 4 4 4 4 5 5 5 4 5 4 4 5 5 5 7 10 7 6 7 7 7 8 9 10 10 14 16 16 16 16 16 15 13 13 12
3 3 3 4 4 4 4 4 4 5 5 5 5 6 6 5 6 5 5 6 5 6 6 7 8 6 6 5 6 7 8 7 9 11 13 14 15 15 15 13 12 12 11
3 3 4 4 4 4 4 4 4 5 5 5 6 6 6 6 7 7 6 6 6 6 6 7 7 7 6 5 5 6 8 6 7 8 10 11 12 13 13 12 12 11 10
4 3 4 4 4 4 4 4 5 5 5 5 6 6 7 8 10 8 7 6 6 6 6 6 7 6 6 5 5 5 7 7 7 5 5 6 7 7 8 10 10 10 10
3 3 4 4 4 5 6 7 6 5 5 5 6 6 6 8 9 11 11 10 8 7 7 6 7 7 8 6 6 6 6 7 6 3 4 6 4 5 6 6 9 9 8
3 3 4 4 5 6 7 8 7 5 5 5 5 5 5 6 8 6 9 10 9 11 10 8 8 9 8 7 7 7 7 7 7 5 5 6 4 5 6 8 10 9 8
3 4 4 4 4 6 7 7 7 4 4 5 5 6 6 6 6 6 6 6 7 7 8 7 7 8 8 6 7 7 8 8 7 5 3 5 5 5 5 6 9 7 7
3 3 4 4 4 6 7 7 6 3 4 5 5 5 6 6 9 9 6 6 7 6 8 9 10 10 11 11 8 5 5 6 7 5 2 3 3 5 5 4 5 6 7
3 3 3 3 4 4 6 6 6 3 4 4 4 4 7 7 9 9 6 6 7 6 5 6 7 8 8 8 9 6 5 6 5 4 2 2 3 3 3 3 3 4 5
Wind_Direction
64 57 51 50 47 46 46 40 36 32 30 26 26 30 19 7 4 360 352 354 352 348 344 343 341 341 337 335 335 334 323 307 297 290 286 284 285 291 293 292 294 294 290
72 66 56 50 44 44 47 46 38 33 22 23 18 13 4 359 2 359 351 348 350 346 345 341 337 335 332 330 326 324 323 317 303 298 291 282 280 283 285 287 285 286 288
74 72 66 54 41 43 50 51 40 38 27 19 3 359 2 357 356 355 354 354 357 354 349 345 337 331 326 324 324 323 320 317 311 303 298 292 286 283 282 284 286 283 281
74 70 67 54 41 50 52 54 41 26 17 4 350 339 345 346 348 351 2 6 12 6 359 355 347 335 330 326 323 320 318 315 313 306 302 299 293 288 284 282 281 282 282
70 69 65 50 48 54 49 44 40 34 10 356 339 329 327 322 328 355 15 14 18 13 3 354 352 344 338 332 325 321 319 315 312 311 305 301 299 297 293 289 285 281 279
63 68 64 51 52 57 45 40 32 28 13 348 341 337 325 317 325 333 345 11 22 17 8 1 356 348 345 341 334 329 323 317 313 310 310 305 300 297 295 292 289 287 283
60 67 60 60 59 64 46 46 50 35 22 8 11 349 334 326 334 343 356 8 13 14 15 6 357 350 344 342 336 331 325 320 317 313 312 309 303 300 298 295 293 291 286
53 64 71 67 60 61 36 38 55 53 21 27 41 14 343 337 349 353 350 354 354 6 6 357 353 347 338 335 332 331 326 321 318 316 312 309 307 300 297 295 294 295 293
26 46 69 87 69 102 140 342 77 96 197 325 42 113 82 288 312 317 328 338 341 345 345 346 347 339 332 331 328 327 326 323 320 318 317 314 310 308 301 296 294 294 295
359 359 14 92 122 115 209 238 219 206 187 242 288 292 217 207 274 307 308 325 333 328 325 331 331 325 324 327 326 325 325 325 322 320 317 314 311 309 307 302 298 297 294
338 340 332 332 254 238 237 232 233 229 212 220 222 241 256 267 234 250 286 305 313 296 303 306 308 313 316 318 320 322 326 324 321 318 315 313 311 310 309 309 305 301 297
330 333 316 289 265 255 247 240 232 226 226 230 233 228 223 232 237 246 270 290 296 293 295 287 286 302 314 314 313 318 320 320 319 317 315 313 310 310 309 309 306 301 298
289 278 293 277 272 259 251 240 233 236 230 228 231 236 237 244 242 250 267 283 289 293 287 275 268 294 309 316 315 320 319 318 316 314 313 311 310 308 307 305 305 301 298
258 272 272 268 263 257 257 242 241 241 242 237 243 237 241 246 241 242 251 276 292 291 279 275 275 275 304 309 311 320 322 318 314 311 309 307 306 306 305 304 301 300 297
264 270 282 276 269 259 250 244 243 244 243 244 244 244 246 249 244 246 246 245 259 283 285 274 275 287 308 309 312 315 311 308 310 308 305 303 302 302 302 303 301 297 296
249 255 267 269 268 267 257 243 246 246 249 256 252 250 256 255 252 247 247 251 249 259 274 275 276 289 299 302 304 306 302 303 303 305 304 301 299 299 299 298 297 295 294
247 247 253 262 261 259 253 246 251 253 250 261 263 260 263 261 260 259 257 257 258 261 273 284 283 288 287 290 299 300 298 297 298 300 303 301 299 299 296 294 291 291 290
255 250 249 259 262 261 254 249 256 257 249 256 261 260 263 267 265 262 259 260 261 260 267 282 289 289 284 285 289 292 298 297 294 297 301 302 299 298 296 293 289 288 288
258 259 251 253 261 258 257 255 251 253 251 253 257 259 262 261 263 262 260 260 262 268 267 275 285 288 288 289 296 295 292 289 294 297 300 303 301 301 298 294 290 287 288
255 256 254 251 256 258 257 257 255 254 254 257 258 257 258 255 256 258 260 258 260 267 270 275 283 287 289 289 289 298 303 299 297 300 298 300 299 301 301 297 293 291 290
255 254 261 263 261 261 252 250 255 258 256 262 264 262 262 263 265 264 265 260 260 265 271 276 280 288 290 295 293 294 297 302 296 283 295 301 302 302 304 301 296 295 294
258 260 260 263 265 269 270 273 274 266 260 260 268 272 271 271 274 276 277 276 274 269 270 271 278 282 286 287 289 294 297 302 298 297 301 298 296 294 296 296 297 297 296
257 262 262 264 266 273 280 280 279 271 260 257 260 266 276 279 284 273 276 281 280 276 274 274 277 278 280 279 284 291 290 288 283 288 296 290 290 286 290 299 300 299 299
252 261 266 266 271 277 284 288 289 279 265 262 259 260 266 273 273 273 270 273 275 277 278 275 270 274 274 273 270 277 280 287 282 275 268 279 286 285 293 296 300 304 307
265 266 264 261 265 276 285 293 298 283 272 270 266 267 268 267 275 282 276 274 281 283 286 282 282 281 282 283 283 285 286 291 292 285 253 261 278 294 292 285 296 314 314
266 272 277 272 267 275 286 295 296 274 281 285 283 275 277 282 287 291 275 269 279 284 288 295 296 294 292 289 288 275 270 275 283 282 250 259 272 300 300 283 289 312 315
Height
1526 1527 1527 1527 1527 1527 1528 1528 1528 1528 1528 1528 1528 1528 1528 1528 1528 1528 1528 1528 1527 1527 1527 1527 1527 1527 1527 1527 1527 1526 1526 1525 1525 1525 1524 1524 1523 1523 1522 1522 1521 1521 1520
1525 1525 1525 1525 1525 1525 1526 1526 1526 1526 1526 1526 1526 1526 1526 1526 1525 1525 1525 1525 1525 1525 1525 1525 1525 1525 1524 1524 1524 1523 1523 1522 1522 1521 1521 1520 1520 1519 1519 1518 1518 1517 1517
1523 1523 1523 1523 1524 1524 1524 1524 1524 1524 1524 1524 1524 1523 1523 1523 1523 1523 1522 1522 1522 1522 1522 1522 1521 1521 1521 1521 1521 1520 1520 1519 1519 1518 1517 1517 1516 1516 1515 1515 1514 1514 1513
1521 1522 1522 1522 1522 1522 1522 1522 1521 1521 1521 1521 1521 1521 1521 1520 1520 1520 1519 1519 1519 1519 1519 1518 1518 1518 1518 1518 1517 1517 1517 1516 1515 1514 1514 1513 1513 1512 1512 1511 1510 1510 1509
1519 1520 1520 1520 1520 1519 1519 1519 1519 1519 1518 1518 1518 1518 1518 1517 1517 1516 1516 1516 1516 1515 1515 1515 1515 1515 1514 1514 1514 1513 1513 1512 1511 1511 1510 1509 1509 1508 1508 1507 1506 1506 1505
1517 1517 1517 1517 1517 1517 1517 1517 1516 1516 1516 1515 1515 1514 1514 1514 1514 1513 1513 1513 1513 1512 1512 1512 1511 1511 1510 1510 1509 1509 1508 1508 1507 1506 1506 1505 1505 1504 1503 1503 1502 1501 1501
1515 1515 1515 1515 1515 1514 1514 1514 1514 1513 1513 1512 1511 1511 1511 1511 1510 1510 1510 1510 1510 1509 1509 1508 1508 1507 1506 1506 1505 1504 1504 1503 1503 1502 1501 1500 1500 1499 1498 1498 1497 1497 1496
1513 1513 1513 1513 1512 1512 1512 1512 1511 1511 1510 1510 1509 1508 1507 1508 1507 1507 1507 1507 1506 1506 1505 1504 1504 1503 1502 1502 1501 1500 1499 1498 1498 1497 1496 1495 1495 1494 1493 1493 1492 1491 1491
1510 1510 1510 1510 1510 1509 1509 1509 1509 1508 1508 1508 1508 1508 1507 1505 1503 1503 1503 1503 1502 1502 1502 1501 1500 1499 1499 1498 1497 1496 1494 1493 1493 1492 1491 1490 1490 1489 1488 1487 1487 1486 1485
1508 1508 1507 1507 1507 1506 1506 1506 1506 1506 1505 1505 1505 1505 1505 1504 1503 1499 1498 1498 1498 1498 1497 1497 1496 1495 1494 1493 1492 1491 1490 1489 1488 1486 1486 1485 1484 1483 1483 1482 1481 1480 1479
1504 1504 1504 1504 1504 1503 1503 1503 1503 1503 1502 1502 1501 1501 1501 1501 1500 1498 1494 1493 1493 1493 1492 1492 1491 1490 1490 1489 1487 1486 1485 1483 1482 1481 1480 1479 1478 1478 1477 1476 1475 1474 1473
1501 1501 1501 1501 1501 1500 1500 1499 1499 1499 1498 1498 1498 1497 1497 1497 1496 1495 1492 1489 1487 1487 1487 1486 1486 1485 1484 1483 1482 1481 1479 1478 1477 1476 1474 1473 1472 1471 1471 1470 1469 1468 1467
1497 1497 1497 1497 1497 1497 1496 1496 1495 1495 1494 1494 1494 1494 1493 1493 1492 1492 1490 1486 1484 1481 1481 1481 1481 1480 1479 1478 1477 1475 1474 1473 1471 1470 1469 1467 1466 1465 1464 1464 1463 1462 1461
1494 1494 1494 1493 1493 1493 1492 1492 1491 1491 1490 1489 1489 1489 1489 1488 1488 1487 1486 1484 1480 1477 1476 1475 1475 1475 1474 1473 1472 1470 1468 1467 1466 1464 1463 1461 1460 1459 1458 1457 1456 1456 1455
1490 1490 1490 1489 1489 1489 1488 1487 1486 1486 1486 1485 1484 1484 1484 1483 1483 1483 1482 1481 1480 1475 1470 1470 1470 1470 1469 1468 1466 1465 1463 1461 1460 1458 1457 1455 1454 1453 1452 1451 1450 1449 1448
1486 1486 1485 1485 1485 1484 1483 1482 1482 1481 1481 1480 1480 1479 1479 1478 1478 1478 1477 1476 1475 1473 1468 1465 1465 1465 1464 1462 1461 1459 1457 1455 1454 1452 1451 1450 1448 1447 1446 1445 1444 1443 1442
1482 1481 1481 1481 1480 1480 1479 1478 1477 1477 1476 1475 1475 1474 1474 1474 1473 1472 1472 1471 1470 1469 1465 1461 1461 1460 1458 1457 1455 1453 1451 1450 1448 1446 1445 1444 1442 1441 1440 1439 1438 1436 1435
1478 1478 1477 1477 1476 1475 1474 1473 1472 1472 1471 1470 1470 1469 1469 1468 1468 1467 1466 1466 1465 1463 1461 1456 1455 1454 1453 1451 1449 1447 1446 1444 1442 1441 1439 1438 1436 1435 1434 1433 1431 1430 1429
1474 1474 1473 1472 1471 1471 1470 1469 1468 1467 1467 1466 1465 1465 1464 1464 1463 1462 1461 1460 1459 1458 1456 1453 1450 1449 1447 1446 1444 1442 1440 1438 1437 1435 1434 1432 1431 1429 1428 1426 1425 1424 1423
1470 1469 1469 1468 1467 1466 1466 1465 1464 1463 1462 1461 1461 1460 1459 1459 1458 1457 1456 1455 1454 1453 1451 1449 1446 1444 1442 1441 1439 1437 1434 1433 1431 1430 1429 1427 1425 1423 1422 1420 1419 1418 1417
1466 1465 1465 1464 1463 1462 1461 1460 1459 1458 1457 1456 1456 1455 1454 1454 1453 1452 1451 1450 1449 1447 1446 1444 1442 1439 1437 1436 1435 1432 1429 1427 1426 1425 1423 1422 1420 1418 1416 1415 1413 1412 1411
1462 1461 1460 1460 1459 1458 1457 1456 1455 1453 1452 1452 1451 1450 1450 1449 1448 1447 1447 1446 1445 1443 1441 1439 1437 1435 1433 1432 1431 1429 1426 1423 1420 1420 1418 1416 1415 1413 1411 1410 1408 1407 1406
1457 1457 1456 1455 1454 1454 1453 1452 1451 1450 1448 1448 1447 1446 1445 1444 1443 1442 1441 1440 1439 1438 1437 1436 1433 1431 1429 1428 1426 1424 1422 1420 1417 1416 1414 1411 1410 1408 1407 1405 1404 1403 1402
1453 1453 1452 1451 1450 1449 1449 1448 1447 1446 1445 1444 1443 1442 1441 1439 1439 1437 1436 1435 1434 1433 1432 1430 1428 1426 1425 1424 1422 1420 1418 1415 1413 1412 1411 1407 1405 1404 1403 1402 1400 1399 1398
1449 1448 1448 1447 1446 1445 1445 1444 1443 1442 1441 1440 1439 1438 1437 1435 1434 1433 1432 1430 1429 1427 1426 1425 1423 1422 1420 1419 1418 1416 1413 1411 1408 1407 1407 1404 1402 1400 1399 1398 1397 1396 1395
1445 1445 1444 1443 1442 1441 1441 1440 1439 1438 1437 1436 1435 1434 1433 1432 1430 1429 1428 1426 1424 1422 1421 1419 1418 1417 1415 1414 1413 1411 1409 1407 1405 1403 1402 1401 1399 1398 1395 1394 1394 1393 1392